Weather History for LTBA - January, 2015

Change the Weather History Date:

Friday, January 30, 2015

  Actual Average Record
Temperature  
Mean Temperature 49 °F -  
Max Temperature 54 °F 47 °F - ()
Min Temperature 44 °F 37 °F - ()
Degree Days  
Heating Degree Days 16    
Moisture  
Dew Point 43 °F    
Average Humidity 74    
Maximum Humidity 93    
Minimum Humidity 55    
Precipitation  
Precipitation 0.00 in - - ()
Sea Level Pressure  
Sea Level Pressure 29.64 in    
Wind  
Wind Speed 7 mph ()    
Max Wind Speed 16 mph    
Max Gust Speed 26 mph    
Visibility 5.9 miles    
Events Rain    
T = Trace of Precipitation, MM = Missing Value Source: Averaged Metar Reports

Daily Weather History Graph

Daily Weather History Graph

Search for Another Location

Airport or City:

Trip Planner

Search our weather history database for the weather conditions in past years. The results will help you decide how hot, cold, wet, or windy it might be!

Date:

Astronomy

Jan. 30, 2015 Rise Set
Actual Time 7:17 AM EET 5:18 PM EET
Civil Twilight 6:48 AM EET 5:47 PM EET
Nautical Twilight 6:15 AM EET 6:21 PM EET
Astronomical Twilight 5:43 AM EET 6:53 PM EET
Moon 1:37 PM EET (1/30) 3:28 AM EET (1/30)
Length of Visible Light 10h 59m
Length of Day
10h 01m
Waxing Gibbous, 81% of the Moon is Illuminated
Jan 30
Waxing Gibbous
Feb 4
Full
Feb 12
Last Quarter
Feb 19
New
Feb 25
First Quarter

Hourly Weather History & Observations

Time (EET) Temp. Windchill Dew Point Humidity Pressure Visibility Wind Dir Wind Speed Gust Speed Precip Events Conditions
12:20 AM 48.2 °F - 44.6 °F 87% 29.74 in 6.2 mi South 4.6 mph - N/A   Mostly Cloudy
12:50 AM 48.2 °F - 44.6 °F 87% 29.71 in 4.3 mi South 4.6 mph - N/A Rain Light Rain Showers
1:20 AM 48.2 °F - 44.6 °F 87% 29.71 in 2.5 mi SSW 4.6 mph - N/A Rain Light Rain Showers
1:50 AM 48.2 °F - 42.8 °F 82% 29.71 in 4.3 mi South 4.6 mph - N/A   Mostly Cloudy
2:00 AM 49 °F - 43 °F 74% 29.73 in 4 mi South 4.6 mph - - Rain Light Rain Showers
2:20 AM 48.2 °F - 44.6 °F 87% 29.71 in 4.3 mi Variable 2.3 mph - N/A   Mostly Cloudy
2:50 AM 46.4 °F 45.2 °F 44.6 °F 93% 29.71 in 5.0 mi ESE 3.5 mph - N/A   Mostly Cloudy
3:20 AM 46.4 °F 45.2 °F 44.6 °F 93% 29.71 in 6.2 mi South 3.5 mph - N/A   Mostly Cloudy
3:50 AM 46.4 °F 45.2 °F 42.8 °F 87% 29.68 in 6.2 mi SSE 3.5 mph - N/A   Mostly Cloudy
4:20 AM 44.6 °F - 42.8 °F 93% 29.71 in 6.2 mi Variable 2.3 mph - N/A   Mostly Cloudy
4:50 AM 46.4 °F 45.2 °F 42.8 °F 87% 29.68 in 6.2 mi SW 3.5 mph - N/A   Mostly Cloudy
5:00 AM 46 °F - 43 °F 87% 29.70 in 6 mi SW 3.5 mph - -   Partly Cloudy
5:20 AM 48.2 °F - 42.8 °F 82% 29.68 in 6.2 mi South 6.9 mph - N/A   Mostly Cloudy
5:50 AM 46.4 °F 42.9 °F 41.0 °F 81% 29.68 in 6.2 mi South 6.9 mph - N/A   Mostly Cloudy
6:50 AM 48.2 °F - 42.8 °F 82% 29.68 in 6.2 mi SE 3.5 mph - N/A   Mostly Cloudy
7:20 AM 48.2 °F - 42.8 °F 82% 29.68 in 6.2 mi South 6.9 mph - N/A   Scattered Clouds
7:50 AM 48.2 °F - 42.8 °F 82% 29.68 in 6.2 mi South 9.2 mph - N/A   Partly Cloudy
8:00 AM 48 °F - 42 °F 73% 29.70 in 6 mi South 9.2 mph - -   Scattered Clouds
8:20 AM 50.0 °F - 42.8 °F 76% 29.68 in 6.2 mi South 13.8 mph - N/A   Partly Cloudy
8:50 AM 50.0 °F - 42.8 °F 76% 29.68 in - South 10.4 mph - N/A   Clear
9:20 AM 51.8 °F - 42.8 °F 71% 29.68 in - South 9.2 mph - N/A   Clear
9:50 AM 51.8 °F - 41.0 °F 67% 29.68 in - South 10.4 mph - N/A   Clear
10:20 AM 51.8 °F - 42.8 °F 71% 29.68 in 6.2 mi SSW 11.5 mph - N/A   Partly Cloudy
10:50 AM 51.8 °F - 42.8 °F 71% 29.68 in - SW 13.8 mph - N/A   Clear
11:00 AM 52 °F - 42 °F 61% 29.70 in 6 mi SW 13.8 mph - -   Scattered Clouds
11:20 AM 51.8 °F - 42.8 °F 71% 29.68 in 6.2 mi SSW 11.5 mph - N/A   Mostly Cloudy
11:50 AM 53.6 °F - 44.6 °F 72% 29.65 in 6.2 mi South 10.4 mph - N/A   Mostly Cloudy
12:20 PM 53.6 °F - 42.8 °F 67% 29.65 in 6.2 mi South 13.8 mph - N/A   Mostly Cloudy
12:50 PM 53.6 °F - 42.8 °F 67% 29.65 in - South 11.5 mph - N/A   Clear
1:20 PM 53.6 °F - 42.8 °F 67% 29.62 in - South 10.4 mph - N/A   Clear
1:50 PM 53.6 °F - 42.8 °F 67% 29.62 in - SSW 11.5 mph - N/A   Clear
2:00 PM 54 °F - 43 °F 55% 29.64 in 6 mi SSW 11.5 mph - -   Partly Cloudy
2:20 PM 53.6 °F - 44.6 °F 72% 29.62 in - SSW 11.5 mph 26.5 mph N/A   Clear
2:50 PM 53.6 °F - 42.8 °F 67% 29.62 in 6.2 mi SSW 11.5 mph - N/A   Mostly Cloudy
3:20 PM 53.6 °F - 42.8 °F 67% 29.62 in 6.2 mi SSW 16.1 mph - N/A   Mostly Cloudy
3:50 PM 53.6 °F - 44.6 °F 72% 29.59 in 6.2 mi South 10.4 mph - N/A   Scattered Clouds
4:20 PM 53.6 °F - 42.8 °F 67% 29.59 in 6.2 mi SSW 13.8 mph - N/A   Mostly Cloudy
4:50 PM 53.6 °F - 42.8 °F 67% 29.59 in 6.2 mi South 13.8 mph - N/A   Mostly Cloudy
5:00 PM 53 °F - 43 °F 61% 29.60 in 6 mi South 13.8 mph - -   Partly Cloudy
5:20 PM 53.6 °F - 42.8 °F 67% 29.59 in 6.2 mi SSW 15.0 mph - N/A   Mostly Cloudy
5:50 PM 53.6 °F - 42.8 °F 67% 29.59 in 6.2 mi SSW 11.5 mph - N/A   Mostly Cloudy
6:20 PM 53.6 °F - 42.8 °F 67% 29.59 in 6.2 mi South 10.4 mph - N/A   Mostly Cloudy
6:50 PM 51.8 °F - 44.6 °F 76% 29.59 in 6.2 mi SSW 9.2 mph - N/A   Mostly Cloudy
7:20 PM 51.8 °F - 44.6 °F 76% 29.59 in 6.2 mi South 6.9 mph - N/A   Mostly Cloudy
7:50 PM 51.8 °F - 44.6 °F 76% 29.59 in 6.2 mi South 10.4 mph - N/A   Mostly Cloudy
8:00 PM 52 °F - 44 °F 66% 29.61 in 6 mi South 10.4 mph - -   Partly Cloudy
8:20 PM 51.8 °F - 44.6 °F 76% 29.59 in 6.2 mi South 10.4 mph - N/A   Mostly Cloudy
8:50 PM 51.8 °F - 44.6 °F 76% 29.56 in 6.2 mi SSW 9.2 mph - N/A   Mostly Cloudy
9:20 PM 53.6 °F - 44.6 °F 72% 29.59 in 6.2 mi SSW 15.0 mph - N/A   Mostly Cloudy
9:50 PM 51.8 °F - 44.6 °F 76% 29.59 in 6.2 mi South 10.4 mph - N/A   Mostly Cloudy
10:09 PM 53.6 °F - 42.8 °F 67% 29.56 in 6.2 mi SSW 13.8 mph - N/A Rain Light Rain Showers
10:20 PM 53.6 °F - 42.8 °F 67% 29.56 in 6.2 mi SSW 16.1 mph - N/A Rain Light Rain Showers
10:50 PM 53.6 °F - 42.8 °F 67% 29.56 in 6.2 mi SSW 16.1 mph - N/A   Mostly Cloudy
11:00 PM 53 °F - 43 °F 60% 29.57 in 6 mi SSW 16.1 mph - - Rain Light Rain Showers
11:20 PM 51.8 °F - 44.6 °F 76% 29.53 in 6.2 mi South 13.8 mph - N/A   Mostly Cloudy
11:50 PM 51.8 °F - 44.6 °F 76% 29.53 in 6.2 mi South 10.4 mph - N/A   Mostly Cloudy